Miscellaneous Local Product
Issued by NWS Hastings, NE

Home | Current Version | Previous Version | Text Only | Print | Product List | Glossary Off
Versions: 1 2 3 4 5 6 7 8 9 10 11 12 13 14 15 16 17 18 19 20 21 22 23 24 25 26 27 28 29 30 31 32 33 34 35 36 37 38 39 40 41 42 43 44 45 46 47 48 49 50

000
AXUS43 KGID 261002
MISGRI

GID CWA HOURLY WEATHER ROUNDUP
NATIONAL WEATHER SERVICE HASTINGS NE
400 AM CST SUN FEB 26 2017

NOTE: "FAIR" INDICATES FEW OR NO CLOUDS BELOW 12,000 FEET WITH NO
SIGNIFICANT WEATHER AND/OR OBSTRUCTIONS TO VISIBILITY.

...SOUTH CENTRAL NEBRASKA...

CITY           SKY/WX    TMP DP  RH WIND       PRES   REMARKS
GRAND ISLAND   CLEAR     30  18  60 SW14      29.86F WCI  19
HASTINGS       CLEAR     26  19  74 W5        29.87S WCI  20
KEARNEY        CLEAR     27  16  63 W3        29.87S
ORD            CLEAR     23  11  60 W12       29.81S WCI  12
YORK           CLEAR     30  23  74 SW12      29.87S WCI  21
AURORA         CLEAR     29  20  67 SW12      29.86S WCI  20
LEXINGTON      CLEAR     22  15  75 SW6       29.86S WCI  14
HOLDREGE       PTCLDY    27  14  59 W8        29.86S WCI  19
HEBRON         CLOUDY    30  24  77 SW3       29.91F

...NEBRASKA PANHANDLE...

CITY           SKY/WX    TMP DP  RH WIND       PRES   REMARKS
CHADRON        CLEAR      8   0  69 SW10      29.80S WCI  -6
ALLIANCE       CLEAR      7   1  76 W15       29.78R WCI -10
SCOTTSBLUFF    CLEAR      9   2  73 NW7       29.81S WCI  -2
SIDNEY         CLEAR     16   4  59 W15       29.81F WCI   1

...WESTERN AND NORTH CENTRAL NEBRASKA...

CITY           SKY/WX    TMP DP  RH WIND       PRES   REMARKS
VALENTINE      CLEAR     10   3  73 W8        29.78R WCI  -2
AINSWORTH      CLEAR     14   8  78 W9        29.77R WCI   2
ONEILL         CLEAR     19  11  70 W12       29.78S WCI   7
BROKEN BOW     CLEAR     22  11  62 W10       29.81F WCI  11
IMPERIAL       PTCLDY    21  14  74 W6        29.86F WCI  13
NORTH PLATTE   CLEAR     21  12  68 W9        29.84S WCI  11
MCCOOK         CLOUDY    23  15  71 NW6       29.87F WCI  16

...EASTERN NEBRASKA...

CITY           SKY/WX    TMP DP  RH WIND       PRES   REMARKS
NORFOLK        CLEAR     20  12  71 W7        29.80F WCI  11
SO SIOUX CITY  CLEAR     20  16  84 S3        29.82F
TEKAMAH        CLEAR     27  20  75 W15       29.84F WCI  15
COLUMBUS       CLEAR     27  16  63 W6        29.85S WCI  20
ALBION         CLEAR     21  12  70 CALM      29.82S
OMAHA EPPLEY   MOCLDY    32  21  64 SW9       29.86S WCI  24
OFFUTT AFB     PTCLDY    31  20  66 SW9       29.86F WCI  22
MILLARD        CLEAR     35  25  66 SW7       29.86S WCI  29
LINCOLN        CLEAR     34  22  61 SW10      29.89S WCI  26
NEBRASKA CITY  MOCLDY    31  19  62 SW10      29.89F WCI  22
BEATRICE       CLOUDY    32  25  74 S8        29.91F WCI  25
FALLS CITY     PTCLDY    31  20  63 SW9       29.94F WCI  23

...NORTHERN KANSAS...

CITY           SKY/WX    TMP DP  RH WIND       PRES   REMARKS
GOODLAND       CLEAR     11   5  77 W7        29.83F WCI   0
HILL CITY      NOT AVBL
PHILLIPSBURG   CLEAR     25  16  68 CALM      29.90F
SMITH CENTER   PTCLDY    25  19  80 SE5       29.91S WCI  19
HAYS           CLEAR     24  15  68 SE6       29.88F WCI  17
RUSSELL        CLEAR     24  15  68 SE9       29.87F WCI  14
CONCORDIA      MOCLDY    36  18  48 SW8       29.92F WCI  30
SALINA         LGT SNOW  35  30  82 S14       29.96R WCI  26
TOPEKA         CLOUDY    37  17  44 S8        29.98S WCI  31



USA.gov is the U.S. government's official web portal to all federal, state and local government web resources and services.